SL-14 DEB, 45283

Orbit data source: Space-Track

SL-14 DEB, 45283 is space debris in LEO originally from a launch on Thu, 15 Aug 1991 UTC launched from the Plesetsk Missile And Space Complex (PKMTR). Debris objects in space refer to the collection of defunct objects orbiting the Earth. Examples of debris include non-operational satellites, rocket bodies, and fragments generated from explosions, collisions, or faulty payload assembly.

Loading next visibility...
Identifier
45283, 1991-056V
Orbit
LEO
Last TLE update
1 day ago
Origin
Manufacturer
Unknown
Mission
Spacecraft
Bus & Motor
Unknown
Mass
Unknown
Launch date (UTC)
1991-08-15 (34 years ago)
Launch vehicle
Unknown
Launch site
Plesetsk Missile And Space Complex (PKMTR)
Object type
Payload
Rocket body
Debris
Shape & HBR
Unknown
Radar Cross Section
Small (<0.1 m²)

Expand to show TLE details & history

TLE from 1 day ago
0 SL-14 DEB
1 45283U 91056V   25128.12899267  .00003618  00000-0  14155-1 0  9990
2 45283  82.5253 166.4149 0267698 159.7729 201.4224 12.77417039242631
Epoch: 2025-05-08T03:05Z
Definitive object data (Epoch: 2025-05-08T03:05:44.966Z)
Latitude
-0.00002°
Longitude
-106.22639°
Altitude
1,548.008 km
Speed
7.004 km/s
True Right ascension
11h 05m 39s
True Declination
0° 00' 00"
Sunlit
Object was in daylight at TLE epoch
Visualization TLE readout
Latitude
-80.0901°
Longitude
121.36814°
Altitude
1,432.879 km
Speed
7.12 km/s
Apparent Right ascension
02h 46m 28s
Apparent Declination
-62° 02' 55"
Sunlit
Object is in daylight
Visualization observer readout
Local Sidereal Time
14:54:49
Azimuth
177.406° S
Elevation
-67.831°
Doppler factor
1
Orbital elements
Apogee altitude
1,556.03 km
Perigee altitude
1,142.313 km
Semi-major axis
7,727.308 km
Eccentricity
0.0267698
Inclination
82.5253°
RAAN
166.4149°
Arg. of periapsis
159.7729°
True anomaly
200.33594°
Mean anomaly
201.4224°
Eccentric anomaly
200.87584°
Mean motion
3.19522 °/min
BSTAR
0.014155
Orbital period
112.67 mins
Loading maneuver chart data...
Loading SW <> Apogee altitude chart data...
Loading historical data...
Loading historical data...
Loading historical data...
Loading historical data...
Loading historical data...
Loading historical data...
Loading historical data...

SL-14 DEB Visibility forecast

Observer location: undefined°, undefined°

Span
Click to sort rows by Start time (UTC) header in descending order
Start Az.
Max El. time (UTC)
Max El. Az.
Max El.
End time (UTC)
End Az.
12 mins2025-05-09 13:32:56.555Z7.483° NNE2025-05-09 13:38:56.555Z73.878° E34.017°2025-05-09 13:44:56.555Z143.088° SSE
10 mins2025-05-09 15:27:56.555Z323.923° NNW2025-05-09 15:31:56.555Z280.74° WNW26.738°2025-05-09 15:37:56.555Z217.763° SW
13 mins2025-05-10 02:11:56.555Z149.74° SSE2025-05-10 02:17:56.555Z94.775° ESE33.883°2025-05-10 02:24:56.555Z24.433° NE
14 mins2025-05-10 04:04:56.555Z220.807° SW2025-05-10 04:11:56.555Z285.474° WNW33.214°2025-05-10 04:18:56.555Z351.782° N
|